Погода в Коцебу

США     66°53′48″N   162°35′09″W
темп.,
°C
ветер,
м/с
пор.,
м/с
влажн.,
%
обл.,
%
осадки,
мм/ч
давл.,
гПа
погр.,
м
14 августа, вс
вс1401:00+8с3492100 0.3 1004159
04:00+6ссз5688100 0.8 1005196
07:00+6ссз7885100 0.0 1004292
10:00+7ссз6780100 0.0 1004360
13:00+10с6769100 0.0 1004762
16:00+12с575986 0.0 1004692
19:00+11ссз465859 0.0 1005512
22:00+10ссз576063 0.0 1006588
15 августа, пн
пн1501:00+6ссз566925 0.0 1007358
04:00+4ссз557857 0.0 1008217
07:00+4ссз327499 0.0 1008236
10:00+5в2275100 0.0 1009604
13:00+6зюз117287 0.1 1010707
16:00+6з227596 0.1 1011695
19:00+7з227384 0.1 1011585
22:00+7ююз1174100 0.4 1010268
16 августа, вт
вт1601:00+5всв3384100 0.4 1011246
04:00+5св449096 0.6 1011580
07:00+4в449796 0.5 1011386
10:00+5ссв337577 0.6 1011537
13:00+6с12607 0.0 1010764
16:00+8юз225640 0.0 1008776
19:00+8зюз425724 0.0 1007459
22:00+8з33595 0.0 1006181
17 августа, ср
ср1701:00+6св346694 0.0 1004176
04:00+5ссв2267100 0.0 1003162
07:00+4с3370100 0.0 1001173
10:00+5с2266100 0.0 1000270
13:00+6с1270100 0.2 999277
16:00+6с2276100 0.6 999268
19:00+8зюз1171100 0.0 999302
22:00+7з2281100 0.4 999144
18 августа, чт
чт1801:00+7з1093100 3.6 100193
04:00+7вюв239397 4.3 1003233
07:00+8вюв3493100 0.1 1004292
10:00+9вюв3492100 0.4 1005303
13:00+10вюв4486100 0.0 1007474
16:00+11вюв3383100 0.1 1008420
19:00+11вюв1177100 0.0 1009307
22:00+11зсз1180100 0.0 100926